TimeEST,TemperatureF,Dew PointF,Humidity,Sea Level PressureIn,VisibilityMPH,Wind Direction,Wind SpeedMPH,Gust SpeedMPH,PrecipitationIn,Events,Conditions,WindDirDegrees,DateUTC
12:36 AM,25.5,19.2,77,30.22,10.0,Calm,Calm,-,N/A,,Overcast,0,2013-01-07 05:36:00
12:55 AM,25.5,19.2,77,30.21,10.0,West,3.5,-,N/A,,Overcast,260,2013-01-07 05:55:00
1:15 AM,25.3,18.9,76,30.21,10.0,Calm,Calm,-,N/A,,Overcast,0,2013-01-07 06:15:00
1:35 AM,24.8,19.4,80,30.21,10.0,Calm,Calm,-,N/A,,Overcast,0,2013-01-07 06:35:00
1:55 AM,24.8,19.6,81,30.22,10.0,Calm,Calm,-,N/A,,Overcast,0,2013-01-07 06:55:00
2:35 AM,24.8,19.4,80,30.21,10.0,Calm,Calm,-,N/A,,Mostly Cloudy,0,2013-01-07 07:35:00
2:55 AM,24.4,19.4,81,30.21,10.0,Calm,Calm,-,N/A,,Mostly Cloudy,0,2013-01-07 07:55:00
3:15 AM,24.3,19.4,82,30.21,10.0,Calm,Calm,-,N/A,,Mostly Cloudy,0,2013-01-07 08:15:00
3:35 AM,23.7,19.4,84,30.21,10.0,Calm,Calm,-,N/A,,Mostly Cloudy,0,2013-01-07 08:35:00
3:55 AM,23.7,19.8,85,30.19,10.0,SSE,3.5,-,N/A,,Overcast,160,2013-01-07 08:55:00
4:15 AM,23.9,19.9,85,30.19,10.0,South,3.5,-,N/A,,Overcast,170,2013-01-07 09:15:00
4:35 AM,24.6,20.1,83,30.18,10.0,SSE,4.6,-,N/A,,Mostly Cloudy,160,2013-01-07 09:35:00
4:55 AM,24.8,20.1,82,30.18,10.0,SSE,4.6,-,N/A,,Overcast,160,2013-01-07 09:55:00
5:15 AM,25.7,20.1,79,30.17,10.0,South,5.8,-,N/A,,Overcast,170,2013-01-07 10:15:00
5:35 AM,25.7,20.7,81,30.16,10.0,SSE,5.8,-,N/A,,Overcast,160,2013-01-07 10:35:00
5:55 AM,26.2,20.3,78,30.15,10.0,SSE,5.8,-,N/A,,Overcast,150,2013-01-07 10:55:00
6:15 AM,26.6,20.3,77,30.15,10.0,SSE,6.9,-,N/A,,Overcast,160,2013-01-07 11:15:00
6:35 AM,26.6,20.3,77,30.14,10.0,SSE,8.1,-,N/A,,Overcast,160,2013-01-07 11:35:00
6:56 AM,26.6,20.3,77,30.14,10.0,South,8.1,-,N/A,,Overcast,170,2013-01-07 11:56:00
7:35 AM,26.8,20.3,77,30.13,10.0,South,6.9,-,N/A,,Overcast,170,2013-01-07 12:35:00
7:55 AM,26.8,20.5,77,30.12,10.0,South,9.2,-,N/A,,Overcast,170,2013-01-07 12:55:00
8:15 AM,26.4,20.7,79,30.12,10.0,SSE,5.8,-,N/A,,Overcast,160,2013-01-07 13:15:00
8:35 AM,26.1,20.7,80,30.10,10.0,SSE,6.9,-,N/A,,Overcast,160,2013-01-07 13:35:00
8:55 AM,26.6,21.0,79,30.10,10.0,South,6.9,-,N/A,,Scattered Clouds,170,2013-01-07 13:55:00
9:15 AM,27.1,21.2,78,30.10,10.0,South,6.9,-,N/A,,Clear,180,2013-01-07 14:15:00
9:35 AM,28.2,21.7,77,30.09,10.0,South,9.2,-,N/A,,Clear,190,2013-01-07 14:35:00
9:55 AM,29.3,22.1,75,30.08,10.0,South,8.1,-,N/A,,Clear,190,2013-01-07 14:55:00
10:15 AM,30.2,22.1,72,30.08,10.0,SSW,10.4,17.3,N/A,,Clear,210,2013-01-07 15:15:00
10:35 AM,30.9,22.1,70,30.07,10.0,SSW,15.0,19.6,N/A,,Clear,200,2013-01-07 15:35:00
10:56 AM,31.6,22.1,68,30.06,10.0,SSW,13.8,18.4,N/A,,Clear,210,2013-01-07 15:56:00
11:15 AM,32.0,22.1,67,30.04,10.0,SSW,13.8,19.6,N/A,,Clear,200,2013-01-07 16:15:00
11:35 AM,32.0,22.1,67,30.02,10.0,SSW,15.0,21.9,N/A,,Clear,200,2013-01-07 16:35:00
11:55 AM,32.9,22.3,65,29.99,10.0,SSW,15.0,25.3,N/A,,Clear,210,2013-01-07 16:55:00
12:15 PM,33.8,22.5,63,29.97,10.0,SSW,19.6,24.2,N/A,,Clear,210,2013-01-07 17:15:00
12:35 PM,34.7,22.5,61,29.95,10.0,SSW,16.1,26.5,N/A,,Clear,200,2013-01-07 17:35:00
12:56 PM,35.8,22.8,59,29.93,10.0,SSW,18.4,29.9,N/A,,Clear,200,2013-01-07 17:56:00
1:15 PM,36.5,23.2,59,29.91,10.0,SSW,18.4,24.2,N/A,,Clear,210,2013-01-07 18:15:00
1:35 PM,37.4,23.7,58,29.89,10.0,SW,21.9,36.8,N/A,,Clear,220,2013-01-07 18:35:00
2:15 PM,38.3,24.4,57,29.87,10.0,SSW,20.7,34.5,N/A,,Clear,210,2013-01-07 19:15:00
2:35 PM,38.5,24.6,58,29.86,10.0,SSW,19.6,32.2,N/A,,Clear,210,2013-01-07 19:35:00
2:55 PM,38.7,24.8,58,29.85,10.0,SSW,23.0,31.1,N/A,,Clear,210,2013-01-07 19:55:00
3:15 PM,38.8,24.8,57,29.84,10.0,SSW,20.7,31.1,N/A,,Clear,210,2013-01-07 20:15:00
3:35 PM,38.7,24.8,58,29.83,10.0,SSW,16.1,27.6,N/A,,Clear,200,2013-01-07 20:35:00
3:55 PM,38.7,24.8,58,29.84,10.0,SW,19.6,27.6,N/A,,Clear,220,2013-01-07 20:55:00
4:15 PM,38.7,25.0,58,29.84,10.0,SW,15.0,27.6,N/A,,Clear,220,2013-01-07 21:15:00
4:35 PM,38.5,25.0,58,29.84,10.0,SW,17.3,27.6,N/A,,Clear,230,2013-01-07 21:35:00
4:55 PM,38.3,25.5,60,29.84,10.0,SW,17.3,26.5,N/A,,Clear,230,2013-01-07 21:55:00
5:15 PM,38.5,25.7,60,29.83,10.0,SW,24.2,41.4,N/A,,Clear,220,2013-01-07 22:15:00
5:35 PM,38.3,25.7,61,29.84,10.0,SW,24.2,40.3,N/A,,Clear,230,2013-01-07 22:35:00
6:15 PM,37.4,26.6,65,29.85,10.0,SW,24.2,35.7,N/A,,Scattered Clouds,230,2013-01-07 23:15:00
6:35 PM,37.4,26.8,66,29.85,10.0,SW,24.2,34.5,N/A,,Scattered Clouds,230,2013-01-07 23:35:00
6:56 PM,37.0,27.1,67,29.85,10.0,SW,24.2,34.5,N/A,,Clear,230,2013-01-07 23:56:00
7:15 PM,36.9,27.5,69,29.85,10.0,SW,19.6,34.5,N/A,,Clear,220,2013-01-08 00:15:00
7:35 PM,36.7,27.9,70,29.85,10.0,SW,20.7,34.5,N/A,,Clear,230,2013-01-08 00:35:00
7:56 PM,36.9,28.2,71,29.85,10.0,SW,21.9,34.5,N/A,,Clear,230,2013-01-08 00:56:00
8:15 PM,36.7,28.4,72,29.86,10.0,SW,25.3,33.4,N/A,,Clear,230,2013-01-08 01:15:00
8:35 PM,36.7,28.4,72,29.85,10.0,WSW,20.7,33.4,N/A,,Clear,240,2013-01-08 01:35:00
8:55 PM,36.7,28.2,71,29.86,10.0,WSW,21.9,32.2,N/A,,Clear,240,2013-01-08 01:55:00
9:15 PM,36.5,28.0,71,29.85,10.0,WSW,19.6,27.6,N/A,,Clear,240,2013-01-08 02:15:00
9:35 PM,36.5,27.5,70,29.86,10.0,WSW,17.3,25.3,N/A,,Clear,240,2013-01-08 02:35:00
9:55 PM,36.5,27.5,70,29.86,10.0,SW,16.1,33.4,N/A,,Clear,230,2013-01-08 02:55:00
10:15 PM,36.7,27.5,69,29.87,10.0,WSW,18.4,31.1,N/A,,Clear,240,2013-01-08 03:15:00
10:36 PM,36.3,27.5,70,29.88,10.0,WSW,18.4,26.5,N/A,,Clear,240,2013-01-08 03:36:00
10:55 PM,36.5,27.9,71,29.88,10.0,WSW,13.8,25.3,N/A,,Clear,240,2013-01-08 03:55:00
11:15 PM,36.1,28.2,73,29.89,10.0,WSW,18.4,27.6,N/A,,Clear,240,2013-01-08 04:15:00
11:55 PM,36.5,29.1,75,29.89,10.0,WSW,16.1,28.8,N/A,,Clear,240,2013-01-08 04:55:00